[[{"header":{"parameterUnit":"m.s-1","parameterCategory":1,"la1":30.2992,"la2":30.254,"lo1":-89.0895,"lo2":-89.0443,"dy":0.0025,"dx":0.0025,"nx":19,"ny":19,"refTime":"2026-05-03T09:00:00:Z","depth":0,"parameterNumber":2,"parameterNumberName":"U-component_of_WINDS"},"data":[0,0,0,-1.1995,-1.1998,-1.2119,-1.212,-1.2258,-1.2259,0,0,0,0,0,0,0,0,0,0,0,-1.1949,-1.195,-1.1995,-1.1998,-1.2119,-1.212,-1.2258,-1.2259,0,0,0,0,0,0,0,0,0,0,0,-1.1949,-1.195,-1.1951,-1.1998,-1.2119,-1.212,-1.2258,-1.2172,0,0,0,0,0,0,0,0,0,0,-1.2057,-1.2005,-1.195,-1.1951,-1.1999,-1.2119,-1.212,-1.2168,-1.2177,-1.2196,0,-1.221,0,-1.2237,-1.2268,-1.2268,0,0,0,-1.2005,-1.1997,-1.2039,-1.1951,-1.2,-1.2119,-1.2066,-1.2174,-1.2184,-1.2208,-1.2212,-1.2218,-1.2239,-1.2268,-1.2269,-1.2353,-1.2353,0,0,-1.1999,-1.1966,-1.2032,-1.2045,-1.2026,-1.2063,-1.207,-1.218,-1.2182,-1.2213,-1.2221,-1.2241,-1.2269,-1.227,-1.2353,-1.2353,0,0,0,-1.1974,-1.196,-1.2,-1.2039,-1.2062,-1.2066,-1.2075,-1.2177,-1.2193,-1.2223,-1.2243,-1.227,-1.2271,-1.2353,-1.2353,-1.2324,0,0,0,-1.1971,-1.1946,-1.1997,-1.1978,-1.206,-1.2121,-1.2069,-1.2185,-1.2199,-1.2242,-1.227,-1.2273,-1.2353,-1.2353,-1.2325,-1.2315,0,0,0,-1.1945,-1.1944,-1.1958,-1.1976,-1.2027,-1.212,-1.2143,-1.2189,-1.2211,-1.2268,-1.2273,-1.2353,-1.2353,-1.2325,-1.2316,-1.2328,0,0,0,-1.1907,-1.1929,-1.1957,-1.1989,-1.2026,-1.2101,-1.2142,-1.22,-1.2246,-1.227,-1.2353,-1.2353,-1.2325,-1.2317,-1.2328,-1.2331,-1.233,0,0,-1.1916,-1.1929,-1.195,-1.1979,-1.2041,-1.2085,-1.2144,-1.2216,-1.2252,-1.2317,-1.232,-1.2324,-1.2316,-1.2328,-1.2332,-1.233,0,0,0,-1.1942,-1.1957,-1.1981,-1.2023,-1.208,-1.2128,-1.2195,-1.2222,-1.228,-1.2279,-1.2333,-1.2329,-1.2337,-1.234,-1.2339,-1.2348,-1.2353,-1.2353,-1.2353,-1.1906,-1.1951,-1.199,-1.205,-1.209,-1.2161,-1.2198,-1.2247,-1.2279,-1.2292,-1.2311,-1.2308,-1.231,-1.2309,-1.2318,-1.2317,-1.2317,-1.2317,-1.2316,-1.1922,-1.1951,-1.1996,-1.2049,-1.2097,-1.2143,-1.2212,-1.2234,-1.2284,-1.2297,-1.2306,-1.2316,-1.2306,-1.2317,-1.2315,-1.2315,-1.2315,-1.2315,-1.2316,-1.1903,-1.1925,-1.1959,-1.2025,-1.2072,-1.2132,-1.2178,-1.222,-1.226,-1.2269,-1.2295,-1.2295,-1.2301,-1.2279,-1.2279,-1.2279,-1.2279,-1.2279,-1.2279,-1.187,-1.1909,-1.1943,-1.2006,-1.2039,-1.2089,-1.2161,-1.2195,-1.2243,-1.227,-1.227,-1.2302,-1.2297,-1.2295,-1.2279,-1.2279,-1.2279,-1.2279,-1.2279,-1.1869,-1.1877,-1.1928,-1.1962,-1.204,-1.2084,-1.2138,-1.2204,-1.2238,-1.2259,-1.229,-1.228,-1.2295,-1.2297,-1.2295,-1.228,-1.228,-1.228,-1.228,-1.1853,-1.1865,-1.1929,-1.198,-1.2034,-1.2089,-1.2146,-1.2203,-1.2263,-1.2287,-1.2296,-1.2297,-1.2297,-1.2313,-1.2314,-1.2313,-1.2303,-1.2303,-1.2303,-1.1855,-1.1875,-1.1916,-1.1975,-1.204,-1.2094,-1.215,-1.2207,-1.2276,-1.2305,-1.2307,-1.2306,-1.2309,-1.2308,-1.2334,-1.2335,-1.2334,0,0]},{"header":{"parameterUnit":"m.s-1","parameterCategory":1,"la1":30.2992,"la2":30.254,"lo1":-89.0895,"lo2":-89.0443,"dy":0.0025,"dx":0.0025,"nx":19,"ny":19,"refTime":"2026-05-03T09:00:00:Z","depth":0,"parameterNumber":3,"parameterNumberName":"V-component_of_WINDS"},"data":[0,0,0,-0.0957,-0.0958,-0.1034,-0.1035,-0.1113,-0.1113,0,0,0,0,0,0,0,0,0,0,0,-0.092,-0.092,-0.0957,-0.0958,-0.1034,-0.1035,-0.1112,-0.1113,0,0,0,0,0,0,0,0,0,0,0,-0.092,-0.092,-0.092,-0.0958,-0.1034,-0.1035,-0.1112,-0.1062,0,0,0,0,0,0,0,0,0,0,-0.0992,-0.0944,-0.092,-0.092,-0.0959,-0.1034,-0.1035,-0.106,-0.1065,-0.1069,0,-0.1067,0,-0.1091,-0.1117,-0.1117,0,0,0,-0.0969,-0.094,-0.0973,-0.092,-0.0959,-0.1034,-0.1003,-0.1063,-0.1069,-0.1076,-0.1068,-0.1072,-0.1092,-0.1117,-0.1117,-0.1099,-0.1098,0,0,-0.0965,-0.0927,-0.0968,-0.0976,-0.0961,-0.1,-0.1005,-0.1067,-0.1057,-0.1069,-0.1074,-0.1094,-0.1118,-0.1118,-0.1099,-0.1099,0,0,0,-0.0945,-0.0924,-0.0956,-0.0972,-0.0987,-0.1002,-0.1008,-0.1055,-0.1068,-0.1075,-0.1094,-0.1118,-0.1119,-0.11,-0.1099,-0.1033,0,0,0,-0.0943,-0.0913,-0.0953,-0.0931,-0.0985,-0.1022,-0.0993,-0.1064,-0.1072,-0.1094,-0.1118,-0.1119,-0.1101,-0.11,-0.1036,-0.1008,0,0,0,-0.092,-0.091,-0.0916,-0.0929,-0.096,-0.1021,-0.1039,-0.1066,-0.1083,-0.1117,-0.1119,-0.1101,-0.11,-0.1039,-0.1013,-0.0992,0,0,0,-0.0885,-0.0857,-0.0915,-0.0891,-0.0959,-0.0979,-0.1039,-0.1056,-0.1077,-0.1118,-0.1101,-0.1099,-0.104,-0.1016,-0.0994,-0.0966,-0.0951,0,0,-0.0829,-0.0849,-0.0838,-0.0892,-0.0892,-0.0971,-0.0962,-0.1018,-0.1056,-0.1083,-0.1083,-0.1035,-0.1013,-0.0992,-0.088,-0.0868,0,0,0,-0.0808,-0.08,-0.0808,-0.0825,-0.0866,-0.0899,-0.096,-0.0981,-0.1005,-0.1061,-0.1023,-0.1011,-0.1001,-0.0989,-0.0978,-0.0972,-0.1092,-0.1092,-0.1093,-0.0675,-0.0725,-0.071,-0.0768,-0.0785,-0.0847,-0.0865,-0.0904,-0.095,-0.094,-0.0948,-0.0874,-0.0859,-0.0852,-0.0844,-0.0938,-0.0938,-0.0938,-0.0938,-0.0598,-0.0593,-0.0654,-0.0662,-0.0714,-0.0722,-0.0782,-0.0814,-0.0829,-0.0872,-0.0866,-0.0908,-0.0836,-0.0832,-0.0933,-0.0934,-0.0934,-0.0935,-0.0935,-0.0516,-0.0522,-0.0547,-0.0577,-0.0595,-0.0656,-0.0668,-0.0716,-0.0762,-0.0755,-0.0769,-0.077,-0.0777,-0.0758,-0.0758,-0.0758,-0.0757,-0.0757,-0.0757,-0.042,-0.0451,-0.0454,-0.0494,-0.0512,-0.0541,-0.0603,-0.0623,-0.0656,-0.0691,-0.0691,-0.0738,-0.082,-0.0839,-0.0753,-0.0754,-0.0754,-0.0755,-0.0755,-0.0323,-0.0352,-0.0356,-0.0374,-0.0426,-0.044,-0.0502,-0.0537,-0.056,-0.0564,-0.0612,-0.0665,-0.069,-0.0698,-0.0715,-0.0602,-0.0602,-0.0602,-0.0602,-0.0253,-0.027,-0.0285,-0.0309,-0.0339,-0.0395,-0.04,-0.0448,-0.0503,-0.0521,-0.0545,-0.0571,-0.0577,-0.0598,-0.0609,-0.0625,-0.0491,-0.0491,-0.0491,-0.0196,-0.0217,-0.0211,-0.0264,-0.0308,-0.0345,-0.0351,-0.0378,-0.0447,-0.0488,-0.0536,-0.054,-0.0583,-0.0594,-0.0635,-0.0651,-0.0681,0,0]}]]